RH
12 18 16 14 15 16 18 37 21 21 28 59 79 75 76 93 81 86 89 94 89 82 74 84 69 71 68 64 55 43 39 35 30 37 44 77 77 58 83 84 89 82 76 64 50 26 19 13 13
17 20 18 13 15 31 62 23 38 24 21 42 73 63 38 63 85 78 84 92 98 88 80 94 76 70 69 67 56 47 41 37 34 40 42 44 52 91 87 87 93 82 79 71 50 31 18 13 13
20 24 20 14 14 44 73 39 30 27 22 27 49 45 88 97 97 97 92 90 96 87 78 94 84 80 72 66 61 51 48 41 37 42 48 46 68 96 78 90 92 88 84 64 55 30 14 23 16
24 24 19 16 24 45 33 49 46 44 55 31 27 52 88 97 97 96 98 100 88 89 75 72 68 70 73 75 60 55 62 61 56 50 56 52 89 97 84 94 84 85 82 57 40 21 17 23 16
23 22 18 15 17 18 31 63 58 59 64 52 44 44 87 92 91 96 88 81 78 77 68 72 62 66 71 64 67 76 69 80 65 60 84 72 91 95 96 95 89 83 70 63 41 32 28 15 24
21 19 19 64 32 22 49 70 61 54 65 68 79 70 76 100 92 86 71 56 59 66 70 76 74 78 76 72 70 71 89 82 85 83 99 98 98 97 95 88 87 80 86 69 43 23 17 37 34
18 17 32 19 38 68 41 61 60 70 56 60 70 82 70 72 76 79 73 74 75 79 91 89 86 80 82 62 62 72 97 86 83 97 100 98 95 98 97 90 92 74 43 18 12 30 33 39 37
18 18 30 46 80 62 61 68 66 71 68 54 55 58 64 68 56 65 74 86 83 73 91 83 79 85 96 86 97 98 95 96 95 96 97 88 97 97 100 86 72 33 15 30 35 34 33 37 22
20 24 99 78 51 58 61 62 64 68 76 61 56 49 53 63 67 65 80 82 89 91 78 82 88 100 79 78 95 96 96 95 96 96 95 96 96 96 90 53 23 21 47 43 46 39 28 13 12
24 50 77 91 99 100 84 58 62 68 80 82 60 58 51 56 55 57 62 70 73 81 73 73 74 95 96 95 97 83 96 96 99 97 96 95 95 95 52 33 47 50 48 51 42 17 14 11 10
49 68 77 79 78 82 94 89 78 69 91 70 60 77 82 74 70 60 54 67 76 76 67 70 60 71 91 88 91 96 97 95 96 97 97 96 94 85 68 60 54 54 53 51 25 15 10 10 10
64 69 72 69 66 58 72 90 97 98 100 90 52 80 74 86 72 54 74 61 64 77 74 69 86 63 72 95 97 98 97 96 97 97 96 95 90 76 71 64 59 61 42 20 14 11 11 12 12
72 79 99 76 46 96 58 73 77 52 80 89 99 80 56 86 82 80 74 62 70 70 71 74 83 74 96 95 97 98 97 98 96 97 84 81 83 75 63 61 60 22 18 13 12 12 12 10 10
74 76 81 90 98 85 95 80 35 35 59 91 96 93 88 90 91 68 88 93 100 98 98 96 96 96 91 93 98 96 97 83 63 53 55 62 62 51 29 28 19 20 15 13 13 12 11 11 10
67 91 71 81 100 97 81 62 41 28 49 65 35 64 35 63 96 98 96 98 97 95 90 72 65 54 56 51 50 42 36 37 38 46 57 50 40 31 19 18 19 16 14 13 13 13 12 11 10
51 82 97 100 100 98 91 93 76 30 44 63 27 22 26 36 52 85 88 86 40 28 27 26 24 27 42 57 30 32 54 50 46 64 60 60 56 19 17 17 17 16 14 14 14 12 12 15 23
58 100 97 89 100 100 92 86 79 75 64 77 45 58 25 25 22 23 31 27 23 22 21 24 24 27 36 31 30 34 39 64 78 71 69 64 32 18 17 16 17 16 14 13 12 12 21 31 35
100 100 100 100 96 95 94 90 74 82 54 65 24 20 23 25 26 24 32 32 30 32 34 31 29 27 26 23 20 29 52 61 74 79 66 30 18 17 18 19 18 16 14 14 23 38 49 44 33
46 75 100 96 83 78 85 87 74 66 64 62 54 20 19 23 28 26 30 37 35 32 28 23 20 22 23 26 27 29 39 36 54 65 35 21 18 18 19 18 18 19 29 43 52 61 63 57 47
48 64 87 83 73 73 93 91 72 63 74 55 71 33 23 18 22 26 35 42 42 39 41 38 36 39 40 33 25 22 32 38 37 36 40 25 24 21 21 26 54 55 60 60 66 61 57 49 44
44 79 63 70 61 71 99 95 79 53 45 43 70 67 55 29 27 22 22 34 22 22 29 36 44 51 50 46 34 25 39 42 39 67 50 58 27 26 39 49 55 66 70 69 61 36 39 44 52
52 54 73 37 39 99 86 98 64 70 64 70 62 61 52 59 30 20 18 19 17 17 18 21 25 33 38 48 56 53 26 30 43 84 90 43 32 32 44 52 61 76 76 69 58 65 74 82 60
72 67 80 92 75 92 72 60 84 58 66 84 82 60 70 32 24 24 22 22 23 28 30 31 33 30 39 61 57 49 68 50 37 42 80 55 45 49 53 57 69 82 80 76 73 85 72 87 83
51 57 61 89 96 83 55 61 98 81 70 70 82 81 83 83 78 34 20 19 19 21 25 28 43 75 67 49 57 70 89 84 73 61 78 54 65 80 83 87 85 82 79 85 94 90 88 84 85
64 52 98 100 97 96 68 59 74 69 62 71 75 86 78 84 78 78 82 37 31 25 30 30 39 73 69 42 64 86 72 62 97 98 98 98 98 98 99 97 92 98 97 100 100 86 99 95 95
68 74 77 100 100 100 74 58 76 59 56 51 50 57 68 69 86 94 85 68 69 68 58 58 50 68 63 46 65 66 68 76 70 72 86 98 98 98 98 93 99 99 96 99 95 87 100 100 78
54 68 92 71 72 79 87 63 64 52 41 38 35 31 48 75 94 100 87 72 74 63 54 61 57 57 59 58 65 41 59 52 48 83 98 98 96 97 94 95 93 88 81 93 81 100 88 99 48
78 76 77 63 75 70 93 66 75 47 40 36 38 43 52 58 72 82 64 56 36 62 75 52 55 72 89 88 39 23 23 34 78 98 98 98 96 97 91 89 76 100 99 99 100 98 95 56 88
82 78 83 94 77 64 81 82 54 58 61 36 27 42 43 50 66 59 72 75 26 23 24 30 29 40 62 69 24 22 24 87 98 97 89 84 75 92 94 92 99 100 100 98 91 75 58 88 94
100 100 100 100 94 64 62 54 59 61 55 47 23 33 41 41 38 32 38 63 60 33 25 22 22 22 22 22 23 24 58 61 78 76 42 59 75 60 60 70 67 55 49 49 73 64 95 100 100
Wind_Speed
23 20 18 17 18 22 22 21 28 26 33 41 42 38 38 34 31 30 26 29 34 33 30 23 24 26 25 24 25 24 22 20 18 15 17 19 18 21 18 15 15 12 12 13 14 15 15 13 10
21 18 17 15 15 16 11 24 22 24 24 36 39 38 37 38 29 29 28 35 36 31 30 24 27 27 28 27 26 25 24 21 16 16 20 21 21 21 21 17 15 13 15 14 15 16 14 13 13
17 15 14 13 12 9 13 17 18 20 22 31 38 39 36 37 32 27 24 22 18 20 21 24 28 30 30 29 28 26 22 23 21 20 21 23 21 21 22 18 17 17 17 14 16 17 13 16 14
15 12 12 10 8 14 16 16 16 21 22 26 35 39 42 33 30 25 27 21 21 21 25 29 31 32 35 33 26 24 23 24 20 18 21 21 21 25 22 22 15 20 20 17 15 17 13 14 14
13 11 9 6 8 12 15 16 19 24 23 23 30 35 31 30 29 6 22 23 24 26 27 28 30 28 27 26 29 29 26 19 17 18 18 20 23 29 23 25 19 19 18 18 15 13 13 13 14
10 7 1 2 8 10 14 17 19 20 25 25 26 30 31 23 19 16 18 23 27 30 30 28 23 20 19 23 24 39 27 18 19 18 19 24 26 28 23 21 17 17 14 9 8 9 10 12 15
9 2 4 7 7 9 15 18 18 21 23 27 30 28 29 29 25 25 23 23 23 28 27 28 26 27 26 28 31 26 35 24 20 20 24 31 28 23 21 17 16 10 9 7 7 9 13 13 16
5 3 7 6 6 9 13 16 20 21 21 26 29 30 29 27 28 26 25 23 24 27 24 21 26 30 30 28 36 47 35 27 30 29 29 34 30 21 19 12 11 10 7 7 7 13 15 17 12
3 8 6 5 6 7 9 11 16 22 25 20 26 28 29 28 28 26 27 31 23 21 24 23 29 32 32 37 36 30 31 35 39 51 38 41 30 21 15 15 11 8 8 8 8 12 11 8 10
7 8 10 9 2 3 8 10 11 10 18 20 20 25 26 26 26 27 26 18 27 27 25 25 26 28 25 33 37 33 35 37 41 55 46 39 27 17 15 14 12 10 9 9 11 8 8 10 14
9 10 7 7 8 8 6 14 9 11 13 15 19 23 22 20 23 24 25 27 27 32 32 33 30 28 36 31 31 35 39 27 35 54 38 32 21 17 14 11 11 10 9 11 10 9 12 14 18
11 8 6 3 3 9 14 8 11 12 15 16 16 21 21 21 26 27 24 22 29 32 33 33 28 28 28 25 20 29 31 19 29 26 29 21 16 15 15 12 11 11 11 10 10 12 15 18 22
10 9 5 5 8 6 12 14 7 6 3 5 20 22 21 21 22 21 21 25 26 26 34 32 30 24 20 17 18 17 22 21 19 22 22 20 18 16 15 14 13 12 9 10 12 16 19 24 28
14 10 3 2 4 8 6 9 3 3 6 8 6 9 15 9 14 18 23 22 21 19 25 20 16 15 14 11 13 14 20 24 22 19 17 15 14 12 11 12 13 10 10 12 15 19 23 27 31
14 9 9 5 4 9 8 2 4 4 6 3 5 10 10 4 4 20 19 26 29 24 23 21 20 19 19 18 17 19 19 16 14 14 13 12 11 12 13 12 11 10 12 16 19 23 27 29 34
15 10 5 5 1 4 6 5 7 5 3 4 5 8 14 13 12 14 17 22 21 22 19 17 17 17 13 9 8 8 8 9 10 12 13 14 12 12 13 12 10 13 17 22 24 28 30 33 37
16 6 11 10 6 3 2 3 5 1 2 2 3 7 10 13 12 10 15 15 18 17 15 13 12 11 10 10 9 9 9 10 12 13 13 12 13 15 14 13 14 18 22 27 30 33 35 40 43
14 11 8 1 5 3 4 3 3 4 2 3 2 1 5 10 11 10 8 8 10 10 11 10 9 9 8 7 7 9 12 13 17 18 14 12 15 15 14 15 18 22 27 31 33 36 39 41 45
21 17 12 13 7 3 8 7 5 1 7 6 1 2 3 6 9 11 10 7 7 5 5 7 9 9 9 10 12 16 16 17 16 19 15 15 15 14 16 21 23 27 31 33 36 37 40 44 47
18 20 16 15 13 10 12 11 8 5 6 4 3 2 3 6 9 11 13 13 12 12 12 12 11 10 8 8 11 13 16 17 17 15 16 15 15 17 23 27 30 32 32 34 34 39 42 47 45
14 15 18 18 12 12 13 15 8 8 6 3 3 5 5 4 8 11 12 12 11 9 8 8 8 10 11 10 11 13 16 17 16 18 18 17 19 22 26 29 33 33 34 36 36 40 43 47 48
10 10 10 14 12 5 13 6 12 10 9 7 6 7 8 9 8 9 11 11 11 10 10 10 9 11 13 13 14 15 19 21 22 22 20 21 23 25 28 31 32 34 36 40 39 44 48 52 52
13 12 13 12 12 10 9 12 15 16 13 10 10 11 10 12 13 13 14 15 16 15 14 13 11 13 14 16 16 18 19 21 21 25 23 24 26 28 31 33 33 34 38 41 46 48 55 60 53
12 15 13 14 15 13 14 12 9 11 13 14 15 16 16 15 14 17 19 20 18 20 19 19 18 17 17 17 16 17 18 21 23 26 26 28 28 30 31 33 36 37 42 43 49 56 56 54 49
17 16 12 12 17 14 16 14 9 11 14 17 18 17 19 20 19 19 21 22 24 25 24 24 22 21 23 22 19 19 22 25 28 31 30 33 33 31 33 34 40 36 40 44 51 58 49 53 55
20 23 22 19 18 15 19 17 13 12 16 18 18 21 19 19 19 20 19 22 26 29 29 29 28 28 26 24 21 22 25 24 29 32 34 37 35 33 34 38 38 42 46 48 50 56 44 51 72
22 27 25 22 22 20 17 14 13 13 17 20 19 20 21 21 20 21 22 23 27 30 30 29 31 29 28 24 23 24 26 28 33 36 32 31 31 32 36 38 39 43 49 45 49 42 61 69 70
24 26 27 25 23 20 17 16 13 15 18 19 17 20 18 23 26 22 21 22 26 30 31 30 28 29 34 21 25 26 30 35 39 35 31 32 33 36 41 41 46 45 39 46 48 65 69 69 64
25 30 30 26 26 24 22 17 16 15 18 21 22 21 23 20 22 25 26 24 22 21 23 23 22 22 22 22 27 30 35 38 37 34 34 38 39 40 43 42 39 42 52 60 67 66 67 63 63
30 29 34 33 27 30 27 25 24 19 21 22 21 23 23 23 25 25 26 24 26 26 25 24 24 24 26 28 32 36 36 40 41 40 39 40 41 43 45 48 51 54 59 59 61 63 61 57 58
Wind_Direction
309 282 282 265 257 241 244 236 237 237 224 226 229 235 244 254 254 255 234 222 228 230 234 229 229 233 237 243 251 256 262 266 274 274 258 263 268 275 291 287 291 290 277 272 268 263 262 269 290
304 287 281 268 248 247 245 241 229 230 228 224 226 230 235 240 239 230 236 234 228 217 221 227 231 234 238 243 252 259 266 270 277 269 261 262 267 268 286 286 285 281 273 269 267 259 270 283 292
298 294 279 262 242 211 218 232 231 222 222 223 222 225 222 217 223 225 232 229 238 240 234 235 242 240 243 249 256 262 270 274 265 261 263 264 264 265 282 277 270 274 272 272 272 265 266 279 291
297 295 277 259 234 216 217 212 211 209 211 218 223 230 248 215 186 203 200 223 230 240 243 240 243 246 248 255 262 261 268 274 269 260 266 260 253 264 274 266 268 270 274 266 265 266 264 279 286
302 297 285 263 225 207 208 205 200 206 208 210 222 226 253 264 263 256 217 232 243 244 244 251 249 256 258 257 262 250 263 272 259 253 253 252 250 263 273 263 267 273 271 273 257 261 262 274 282
316 297 304 237 206 198 199 203 206 210 216 213 224 227 235 251 258 259 240 248 247 250 250 251 246 257 262 264 262 258 250 253 253 245 250 251 254 273 274 266 265 268 269 242 230 247 255 271 284
319 312 169 183 177 194 197 205 209 211 221 223 224 231 233 242 249 252 252 253 255 255 251 254 257 257 266 265 263 261 234 258 247 251 247 252 253 274 257 261 266 220 197 225 242 243 264 275 291
315 170 152 158 168 206 206 213 213 217 225 230 229 230 231 236 242 247 250 255 261 255 261 265 258 262 258 260 263 255 225 268 252 252 248 247 259 254 244 241 190 187 207 211 242 259 277 289 291
166 162 149 136 176 204 212 221 225 227 229 233 235 234 233 232 236 247 245 244 251 253 248 252 265 244 265 265 237 240 276 281 250 261 258 251 242 234 204 179 192 194 210 246 273 278 273 272 296
162 158 161 129 100 182 230 223 240 239 236 238 238 231 231 236 241 245 248 266 257 254 250 243 263 235 253 241 238 259 273 269 256 259 259 250 244 211 181 187 183 209 235 265 281 264 272 290 299
137 127 150 168 192 246 327 193 221 211 231 234 234 230 233 239 243 242 255 261 261 249 251 247 254 249 257 267 256 267 270 259 255 251 244 240 215 184 187 199 214 233 252 264 250 260 283 297 305
135 141 143 172 202 258 295 358 225 199 227 216 227 229 233 252 248 243 246 254 256 242 247 248 250 251 258 252 274 268 250 244 229 231 228 224 175 176 196 204 222 245 247 224 253 279 293 305 309
144 130 175 170 221 256 259 303 23 29 3 281 226 229 236 251 246 239 246 244 242 243 245 240 238 242 226 231 237 216 216 226 217 206 164 150 170 188 204 217 233 217 218 250 275 293 304 307 305
145 143 172 88 286 245 285 259 20 24 20 352 111 188 227 245 252 237 224 230 213 188 186 205 194 179 168 143 171 166 150 145 145 147 151 169 186 208 226 215 205 216 247 275 293 301 304 302 302
166 174 201 235 20 349 54 86 159 68 26 62 80 118 107 147 202 214 188 184 153 138 139 138 136 132 128 132 132 144 146 144 161 165 166 186 204 217 205 207 221 251 277 287 292 296 294 299 306
181 194 158 164 54 15 40 334 353 55 32 129 123 110 116 121 116 136 123 120 141 139 140 140 137 134 130 134 125 141 145 169 190 184 194 212 221 212 211 227 253 274 281 285 290 293 298 300 304
175 204 199 184 129 100 94 329 355 324 76 300 143 132 139 133 129 132 137 148 139 140 141 139 139 144 155 167 176 181 196 203 205 208 216 233 232 216 225 249 268 277 283 290 295 295 299 302 305
208 192 214 310 156 102 200 224 293 357 157 161 254 209 148 137 145 149 138 143 136 146 151 158 171 183 187 194 202 206 212 220 224 229 239 234 216 224 243 263 277 282 286 291 297 302 305 308 310
196 205 201 211 186 257 248 221 278 295 197 155 88 209 172 153 156 162 164 171 171 179 182 192 202 198 201 205 212 216 219 227 226 232 228 217 230 247 264 269 277 282 288 292 293 299 307 312 313
199 207 219 221 222 269 240 210 223 250 214 237 221 193 193 180 177 183 185 189 192 202 210 215 221 222 229 235 235 233 230 233 227 220 222 232 248 264 271 273 277 283 290 296 298 305 311 315 311
206 210 225 232 250 281 206 212 190 225 204 197 145 180 217 218 205 196 194 199 195 200 214 232 246 260 258 253 252 247 238 231 230 234 237 242 255 264 273 276 282 289 295 298 302 310 314 318 315
214 209 222 236 238 245 184 207 215 215 220 228 206 209 216 223 215 214 213 206 205 213 221 230 238 252 262 265 261 251 244 241 240 244 248 257 269 276 287 290 289 294 297 298 297 303 308 311 315
214 216 224 228 232 226 220 214 243 224 223 237 255 244 230 222 223 227 229 231 234 239 239 243 251 257 260 259 261 266 259 251 250 257 259 270 278 289 296 298 297 296 296 297 298 304 316 311 306
227 227 227 230 238 235 216 219 244 232 226 236 251 264 264 261 251 241 241 245 247 248 255 260 266 278 283 282 272 272 270 273 270 264 267 272 278 287 292 298 296 295 298 297 300 308 308 306 302
232 230 231 240 250 243 239 244 227 225 215 227 249 249 258 268 253 277 274 269 270 269 272 272 274 283 281 279 271 277 280 278 286 283 277 278 277 286 291 295 294 292 296 293 298 304 299 292 288
236 237 235 229 243 248 252 257 267 246 240 237 247 252 256 258 259 255 267 266 268 268 270 270 270 273 269 268 266 272 278 287 290 288 284 285 281 287 289 295 285 295 292 294 301 301 285 293 301
240 234 232 234 237 243 254 257 259 257 257 259 264 258 240 243 244 248 250 265 270 272 274 273 272 269 265 260 265 270 276 279 280 279 290 288 288 288 293 294 291 292 294 290 303 281 294 297 301
232 232 230 233 239 244 253 258 262 277 270 271 259 235 244 241 240 241 244 257 260 261 266 273 273 271 255 250 266 274 282 286 284 287 288 288 296 290 295 297 302 285 277 284 291 292 294 300 301
237 234 227 232 237 237 251 258 258 284 272 268 263 248 245 253 246 243 246 254 255 252 256 261 264 268 273 265 272 278 285 287 291 296 300 297 297 289 293 291 288 283 283 285 292 295 297 300 303
225 232 236 241 239 240 252 255 259 284 285 266 258 254 256 255 252 250 252 250 248 252 253 257 263 268 273 276 280 280 285 290 294 297 296 295 291 293 290 285 285 285 290 293 294 296 299 303 302